Latest Weather Observations for Sheoaks

IDV60901

Issued at 9:45 pm EDT Sunday 23 November 2014 (issued every 10 minutes, with the page automatically refreshed every 10 minutes)

About weather observations | Map of Melbourne area stations | Latest observations for Melbourne area | Other Formats
Station Details ID: 087168 Name: SHEOAKS Lat: -37.91 Lon: 144.13 Height: 236.7 m
Data from the previous 72 hours. | See also: Recent months at Sheoaks
Date/Time
EDT
Tmp

°C
App
Tmp
°C
Dew
Point
°C
Rel
Hum
%
Delta-T

°C
Wind Press
QNH
hPa
Press
MSL
hPa
Rain
since
9 am
mm
Dir
 
Spd
km/h
Gust
km/h
Spd
kts
Gust
kts
23/09:30pm 14.8 13.1 8.5 66 3.2 E 7 11 4 6 1014.3 1014.0 0.0
23/09:00pm 15.1 12.2 8.3 64 3.5 E 13 19 7 10 1013.9 1013.6 0.0
23/08:30pm 15.4 12.6 8.6 64 3.5 E 13 19 7 10 1013.5 1013.2 0.0
23/08:00pm 15.8 13.1 9.0 64 3.5 E 13 20 7 11 1013.4 1013.1 0.0
23/07:30pm 16.4 13.4 9.1 62 3.8 E 15 22 8 12 1013.4 1013.1 0.0
23/07:00pm 17.2 13.7 8.6 57 4.5 ESE 17 20 9 11 1013.1 1012.8 0.0
23/06:30pm 18.2 15.1 9.0 55 4.8 ESE 15 19 8 10 1013.0 1012.7 0.0
23/06:00pm 18.9 15.9 9.1 53 5.2 ESE 15 20 8 11 1012.7 1012.4 0.0
23/05:30pm 19.4 15.6 9.0 51 5.5 SE 19 24 10 13 1012.8 1012.5 0.0
23/05:00pm 20.1 17.4 10.2 53 5.4 SSE 15 20 8 11 1012.7 1012.4 0.0
23/04:30pm 21.5 18.8 10.3 49 6.2 SE 15 20 8 11 1012.3 1012.0 0.0
23/04:00pm 21.6 19.1 9.8 47 6.4 SSE 13 20 7 11 1012.1 1011.8 0.0
23/03:30pm 23.2 20.6 10.6 45 7.0 SE 15 26 8 14 1011.9 1011.6 0.0
23/03:00pm 23.9 20.5 11.3 45 7.1 SE 20 30 11 16 1011.6 1011.2 0.0
23/02:30pm 24.5 21.3 11.1 43 7.6 SE 19 28 10 15 1011.3 1011.0 0.0
23/02:00pm 27.1 24.4 9.0 32 10.0 SW 13 20 7 11 1010.9 1010.6 0.0
23/01:30pm 25.6 23.7 9.0 35 9.1 SSE 9 17 5 9 1011.0 1010.7 0.0
23/01:00pm 25.1 23.7 9.4 37 8.7 SW 7 15 4 8 1011.2 1010.9 0.0
23/12:30pm 23.4 21.9 9.0 40 7.8 WSW 7 15 4 8 1011.3 1011.0 0.0
23/12:00pm 22.1 20.8 9.9 46 6.7 W 7 17 4 9 1011.8 1011.5 0.0
23/11:30am 21.6 20.6 10.4 49 6.2 SE 6 13 3 7 1012.2 1011.9 0.0
23/11:00am 20.6 19.5 10.7 53 5.5 S 7 17 4 9 1012.4 1012.1 0.0
23/10:30am 19.8 19.2 10.5 55 5.1 ESE 4 9 2 5 1012.8 1012.5 0.0
23/10:00am 18.4 17.3 10.0 58 4.5 SSW 6 13 3 7 1012.9 1012.6 0.0
23/09:30am 17.8 16.9 10.7 63 3.9 S 6 15 3 8 1013.2 1012.9 0.0
23/09:00am 17.1 16.3 11.2 68 3.2 SSW 6 9 3 5 1013.1 1012.8 0.0
23/08:30am 15.7 15.4 11.5 76 2.3 W 4 9 2 5 1013.0 1012.7 0.0
23/08:00am 14.7 14.0 12.0 84 1.5 SW 7 13 4 7 1012.8 1012.5 0.0
23/07:30am 14.1 13.6 12.0 87 1.1 WSW 6 13 3 7 1012.6 1012.3 0.0
23/07:00am 13.4 13.3 12.0 91 0.8 WSW 4 6 2 3 1012.2 1011.9 0.0
23/06:30am 12.4 12.1 11.5 94 0.5 NNW 4 6 2 3 1011.9 1011.6 0.0
23/06:00am 12.3 11.4 11.4 94 0.5 NNW 7 9 4 5 1011.8 1011.5 0.0
23/05:30am 12.4 12.1 11.3 93 0.6 NW 4 6 2 3 1011.7 1011.3 0.0
23/05:00am 13.1 13.3 11.8 92 0.7 WNW 2 4 1 2 1011.4 1011.1 0.0
23/04:30am 13.4 12.9 12.0 91 0.8 WNW 6 9 3 5 1011.2 1010.9 0.0
23/04:00am 13.7 13.2 12.1 90 0.9 W 6 11 3 6 1011.0 1010.7 0.0
23/03:30am 13.5 12.9 11.7 89 1.0 NW 6 9 3 5 1010.8 1010.5 0.0
23/03:00am 13.5 12.3 11.6 88 1.0 W 9 13 5 7 1010.7 1010.4 0.0
23/02:30am 13.9 11.6 11.6 86 1.2 W 15 20 8 11 1010.5 1010.2 0.0
23/02:00am 14.3 12.6 11.3 82 1.6 W 11 17 6 9 1010.4 1010.1 0.0
23/01:30am 14.8 12.8 11.4 80 1.8 W 13 19 7 10 1010.5 1010.2 0.0
23/01:00am 15.3 13.3 11.5 78 2.1 W 13 19 7 10 1010.5 1010.2 0.0
23/12:30am 15.4 14.2 11.6 78 2.1 WNW 9 13 5 7 1010.6 1010.3 0.0
23/12:00am 15.7 13.8 11.7 77 2.2 WNW 13 17 7 9 1010.2 1009.9 0.0
 
Date/Time
EDT
Tmp

°C
App
Tmp
°C
Dew
Point
°C
Rel
Hum
%
Delta-T

°C
Wind Press
QNH
hPa
Press
MSL
hPa
Rain
since
9 am
mm
Dir
 
Spd
km/h
Gust
km/h
Spd
kts
Gust
kts
22/11:30pm 16.3 14.1 12.1 76 2.3 W 15 22 8 12 1010.0 1009.7 0.0
22/11:00pm 16.6 14.5 12.4 76 2.3 WNW 15 22 8 12 1010.0 1009.7 0.0
22/10:30pm 17.1 15.5 12.8 76 2.4 W 13 19 7 10 1009.7 1009.4 0.0
22/10:00pm 17.9 15.9 12.6 71 3.0 W 15 22 8 12 1009.6 1009.3 0.0
22/09:30pm 18.4 17.1 12.6 69 3.3 W 11 17 6 9 1009.0 1008.7 0.0
22/09:00pm 19.1 17.4 12.4 65 3.8 W 13 20 7 11 1008.3 1008.0 0.0
22/08:30pm 20.9 18.5 12.8 60 4.6 WSW 17 30 9 16 1007.6 1007.2 0.0
22/08:28pm 21.2 18.9 12.9 59 4.8 WSW 17 30 9 16 1007.5 1007.1 0.0
22/08:00pm 26.3 22.4 9.6 35 9.3 NW 20 32 11 17 1006.6 1006.3 0.0
22/07:30pm 27.0 22.4 9.8 34 9.6 NW 24 44 13 24 1006.0 1005.7 0.0
22/07:16pm 27.4 22.1 9.7 33 9.9 NNW 28 50 15 27 1005.6 1005.3 0.0
22/07:00pm 27.9 22.2 8.2 29 10.8 NNW 28 44 15 24 1005.2 1004.9 0.0
22/06:30pm 28.6 22.1 8.3 28 11.2 NNW 32 54 17 29 1004.8 1004.5 0.0
22/06:07pm 29.3 22.3 8.4 27 11.6 NNW 35 57 19 31 1005.2 1004.9 0.0
22/06:00pm 29.3 22.8 8.9 28 11.4 NNW 33 48 18 26 1005.3 1005.0 0.0
22/05:30pm 29.6 23.2 9.2 28 11.5 NW 33 57 18 31 1005.4 1005.1 0.0
22/05:00pm 30.1 23.0 9.6 28 11.7 NW 37 56 20 30 1005.1 1004.8 0.0
22/04:30pm 30.2 24.0 8.0 25 12.3 NNW 30 48 16 26 1005.0 1004.7 0.0
22/04:00pm 29.5 22.7 6.8 24 12.3 NNW 32 54 17 29 1005.4 1005.1 0.0
22/03:30pm 29.5 22.9 6.2 23 12.5 NNW 30 48 16 26 1006.1 1005.8 0.0
22/03:06pm 28.3 21.1 5.8 24 11.9 N 33 70 18 38 1006.3 1006.0 0.0
22/03:01pm 28.8 21.8 6.2 24 12.0 NNW 32 50 17 27 1006.9 1006.6 0.0
22/03:00pm 28.7 21.5 6.1 24 12.0 NNW 33 50 18 27 1006.9 1006.6 0.0
22/02:31pm 27.7 20.6 5.3 24 11.7 NNW 32 52 17 28 1007.5 1007.1 0.0
22/02:30pm 28.1 21.0 5.6 24 11.8 NNW 32 50 17 27 1007.6 1007.2 0.0
22/02:16pm 27.2 19.9 5.5 25 11.3 NNW 33 56 18 30 1007.7 1007.3 0.0
22/02:00pm 28.3 22.2 4.6 22 12.3 NNW 26 41 14 22 1007.7 1007.3 0.0
22/01:30pm 27.4 22.6 5.6 25 11.4 NNW 20 32 11 17 1007.9 1007.5 0.0
22/01:00pm 25.6 19.4 6.3 29 10.1 N 28 43 15 23 1008.0 1007.6 0.0
22/12:47pm 24.6 18.3 5.9 30 9.7 N 28 50 15 27 1008.3 1008.0 0.0
22/12:30pm 24.8 20.0 7.4 33 9.3 N 22 35 12 19 1008.5 1008.2 0.0
22/12:00pm 22.9 18.2 7.8 38 8.0 N 22 37 12 20 1008.7 1008.4 0.0
22/11:37am 21.4 16.6 7.3 40 7.3 N 22 33 12 18 1008.5 1008.2 0.0
22/11:30am 21.8 17.5 7.2 39 7.6 NNW 19 28 10 15 1010.6 1010.3 0.0
22/11:00am 21.6 18.5 7.4 40 7.4 N 13 24 7 13 1010.5 1010.2 0.0
22/10:30am 20.5 18.1 8.8 47 6.2 N 11 19 6 10 1010.5 1010.2 0.0
22/10:00am 19.7 16.9 8.7 49 5.8 N 13 19 7 10 1010.1 1009.8 0.0
22/09:30am 18.1 16.6 9.2 56 4.7 N 7 13 4 7 1010.4 1010.1 0.0
22/09:00am 16.6 15.7 9.1 61 3.9 NNE 4 7 2 4 1010.7 1010.4 0.0
22/08:30am 15.3 14.8 9.2 67 3.2 NNW 2 6 1 3 1011.3 1011.0 0.0
22/08:00am 14.2 12.7 9.0 71 2.7 NNW 7 11 4 6 1011.1 1010.8 0.0
22/07:30am 12.7 11.1 8.2 74 2.3 N 6 9 3 5 1011.0 1010.7 0.0
22/07:00am 12.2 10.8 8.7 79 1.8 N 6 7 3 4 1010.6 1010.3 0.0
22/06:30am 11.3 10.0 7.6 78 1.8 WNW 4 7 2 4 1010.8 1010.5 0.0
22/06:00am 11.3 9.9 7.2 76 2.0 W 4 6 2 3 1010.6 1010.3 0.0
22/05:30am 11.4 9.2 7.7 78 1.8 N 9 13 5 7 1009.4 1009.1 0.0
22/05:00am 11.0 8.0 7.9 81 1.5 N 13 17 7 9 1009.7 1009.4 0.0
22/04:30am 10.4 8.0 8.5 88 0.9 N 11 13 6 7 1009.6 1009.3 0.0
22/04:00am 10.2 8.5 8.3 88 0.9 N 7 11 4 6 1009.8 1009.5 0.0
22/03:30am 10.6 9.1 9.0 90 0.8 N 7 11 4 6 1009.8 1009.5 0.0
22/03:00am 9.5 7.9 8.7 95 0.4 N 7 9 4 5 1010.0 1009.7 0.0
22/02:30am 8.0 6.2 7.1 94 0.4 N 6 7 3 4 1010.2 1009.9 0.0
22/02:00am 8.9 7.7 8.0 94 0.4 NNE 4 6 2 3 1010.8 1010.5 0.0
22/01:30am 8.6 7.3 7.5 93 0.5 N 4 6 2 3 1011.4 1011.1 0.0
22/01:00am 9.6 8.1 8.5 93 0.5 NNE 6 7 3 4 1012.0 1011.7 0.0
22/12:30am 9.2 8.3 7.8 91 0.7 NNE 2 4 1 2 1012.5 1012.2 0.0
22/12:00am 9.7 8.1 7.8 88 0.9 ENE 6 7 3 4 1012.7 1012.4 0.0
 
Date/Time
EDT
Tmp

°C
App
Tmp
°C
Dew
Point
°C
Rel
Hum
%
Delta-T

°C
Wind Press
QNH
hPa
Press
MSL
hPa
Rain
since
9 am
mm
Dir
 
Spd
km/h
Gust
km/h
Spd
kts
Gust
kts
21/11:30pm 10.4 9.2 8.2 86 1.1 E 4 4 2 2 1013.1 1012.8 0.0
21/11:00pm 11.0 9.5 8.6 85 1.2 E 6 7 3 4 1013.3 1013.0 0.0
21/10:30pm 11.2 9.7 8.6 84 1.3 E 6 7 3 4 1013.3 1013.0 0.0
21/10:00pm 11.5 9.8 8.5 82 1.5 E 7 13 4 7 1013.0 1012.7 0.0
21/09:30pm 12.3 10.4 9.0 80 1.7 E 9 13 5 7 1012.6 1012.3 0.0
21/09:00pm 12.9 10.6 9.0 77 2.0 ESE 11 13 6 7 1012.8 1012.5 0.0
21/08:30pm 14.0 11.7 9.0 72 2.6 ESE 11 17 6 9 1012.5 1012.2 0.0
21/08:00pm 15.1 12.4 9.0 67 3.2 ESE 13 19 7 10 1012.2 1011.9 0.0
21/07:30pm 16.5 13.9 9.2 62 3.8 ESE 13 17 7 9 1011.8 1011.5 0.0
21/07:00pm 17.6 14.2 9.2 58 4.4 SE 17 22 9 12 1011.6 1011.2 0.0
21/06:30pm 18.8 15.1 9.3 54 5.1 ESE 19 26 10 14 1011.1 1010.8 0.0
21/06:00pm 20.0 16.3 9.3 50 5.7 ESE 19 26 10 14 1010.9 1010.6 0.0
21/05:30pm 22.9 20.7 5.3 32 8.9 NW 6 11 3 6 1010.7 1010.4 0.0
21/05:00pm 21.9 18.7 4.9 33 8.5 S 11 17 6 9 1010.6 1010.3 0.0
21/04:30pm 22.6 20.3 5.5 33 8.7 WSW 7 13 4 7 1010.6 1010.3 0.0
21/04:00pm 21.8 18.6 5.3 34 8.3 W 11 22 6 12 1011.0 1010.7 0.0
21/03:30pm 21.7 19.4 5.6 35 8.1 W 7 19 4 10 1011.0 1010.7 0.0
21/03:00pm 21.1 18.1 5.9 37 7.7 SW 11 24 6 13 1011.2 1010.9 0.0
21/02:30pm 21.0 18.0 6.2 38 7.5 W 11 32 6 17 1011.3 1011.0 0.0
21/02:00pm 20.0 16.8 6.7 42 6.8 WSW 13 26 7 14 1011.6 1011.2 0.0
21/01:30pm 19.6 16.3 6.4 42 6.7 W 13 22 7 12 1011.9 1011.6 0.0
21/01:00pm 19.4 16.0 7.8 47 6.0 W 15 28 8 15 1011.9 1011.6 0.0
21/12:30pm 18.3 14.8 7.1 48 5.7 W 15 26 8 14 1012.0 1011.7 0.0
21/12:00pm 17.7 14.6 7.2 50 5.3 WSW 13 20 7 11 1012.0 1011.7 0.0
21/11:30am 17.4 14.0 7.5 52 5.0 W 15 24 8 13 1012.0 1011.7 0.0
21/11:00am 16.4 13.7 8.9 61 3.9 WSW 13 24 7 13 1012.2 1011.9 0.0
21/10:30am 15.9 12.4 8.6 62 3.8 W 17 28 9 15 1012.0 1011.7 0.0
21/10:00am 14.7 10.7 8.4 66 3.2 W 19 28 10 15 1011.8 1011.5 0.0
21/09:30am 14.9 12.9 10.3 74 2.4 WSW 11 20 6 11 1011.1 1010.8 0.0
21/09:00am 13.9 12.1 10.7 81 1.7 W 11 19 6 10 1011.1 1010.8 2.0
21/08:30am 13.2 11.1 11.1 87 1.1 W 13 22 7 12 1011.0 1010.7 2.0
21/08:00am 12.6 9.9 11.7 94 0.5 W 17 32 9 17 1011.0 1010.7 2.0
21/07:30am 12.4 10.1 11.8 96 0.3 W 15 22 8 12 1010.6 1010.3 2.0
21/07:00am 12.0 10.0 11.4 96 0.3 WSW 13 26 7 14 1009.9 1009.6 1.8
21/06:30am 12.6 11.1 11.8 95 0.4 W 11 22 6 12 1009.0 1008.7 1.8
21/06:00am 12.9 11.1 12.1 95 0.4 W 13 26 7 14 1008.7 1008.4 1.6
21/05:30am 13.4 10.9 12.3 93 0.6 W 17 28 9 15 1008.4 1008.1 1.6
21/05:00am 13.7 11.2 12.4 92 0.7 W 17 24 9 13 1007.9 1007.5 1.6
21/04:30am 13.8 10.9 12.4 91 0.8 W 19 26 10 14 1007.6 1007.2 1.6
21/04:00am 14.0 11.1 12.4 90 0.9 W 19 30 10 16 1007.3 1006.9 1.6
21/03:30am 13.9 11.1 12.6 92 0.7 W 19 32 10 17 1006.8 1006.5 1.6
21/03:00am 13.9 11.0 12.8 93 0.6 W 20 33 11 18 1006.7 1006.4 1.6
21/02:30am 13.7 10.0 12.6 93 0.6 W 24 35 13 19 1006.6 1006.3 1.6
21/02:00am 14.1 11.1 12.7 91 0.8 W 20 32 11 17 1006.6 1006.3 1.6
21/01:30am 15.9 13.0 14.1 89 1.0 W 22 30 12 16 1006.3 1006.0 1.4
21/01:00am 17.9 17.2 15.3 85 1.5 NW 13 22 7 12 1005.9 1005.6 1.4
21/12:30am 17.8 17.0 15.2 85 1.5 NW 13 20 7 11 1006.0 1005.7 1.4
21/12:00am 18.0 16.9 15.4 85 1.5 NW 15 22 8 12 1005.9 1005.6 1.4
 
Date/Time
EDT
Tmp

°C
App
Tmp
°C
Dew
Point
°C
Rel
Hum
%
Delta-T

°C
Wind Press
QNH
hPa
Press
MSL
hPa
Rain
since
9 am
mm
Dir
 
Spd
km/h
Gust
km/h
Spd
kts
Gust
kts
20/11:30pm 18.3 17.3 15.6 84 1.6 NNW 15 24 8 13 1005.9 1005.6 1.4
20/11:00pm 18.6 17.6 15.5 82 1.8 NNW 15 24 8 13 1006.1 1005.8 1.4
20/10:30pm 18.9 17.5 15.6 81 2.0 NNW 17 26 9 14 1006.1 1005.8 1.4
20/10:00pm 18.9 17.4 15.4 80 2.1 NNW 17 26 9 14 1006.2 1005.9 1.4

Latest Capital City Observations: Canberra | Sydney | Melbourne | Brisbane | Adelaide | Perth | Hobart | Darwin

Other Formats:

Comma delimited format used in spreadsheet applications
http://www.bom.gov.au/fwo/IDV60901/IDV60901.94863.axf

JavaScript Object Notation format (JSON) in row-major order
http://www.bom.gov.au/fwo/IDV60901/IDV60901.94863.json